Time,TemperatureF,DewpointF,PressureIn,WindDirection,WindDirectionDegrees,WindSpeedMPH,WindSpeedGustMPH,Humidity,HourlyPrecipIn,Conditions,Clouds,dailyrainin,SolarRadiationWatts/m^2,SoftwareType,DateUTC
2013-05-12 00:02:00,53.1,41.5,30.10,SE,146,7.0,8.0,65,0.00,,,0.00,0.0,meteohub,2013-05-12 05:02:00,
2013-05-12 00:07:00,53.1,42.1,30.10,SE,144,7.0,9.0,66,0.00,,,0.00,0.0,meteohub,2013-05-12 05:07:00,
2013-05-12 00:12:00,53.1,42.1,30.10,SE,146,5.0,9.0,66,0.00,,,0.00,0.0,meteohub,2013-05-12 05:12:00,
2013-05-12 00:17:00,53.1,42.1,30.10,SE,138,6.0,9.0,66,0.00,,,0.00,0.0,meteohub,2013-05-12 05:17:00,
2013-05-12 00:22:00,52.9,41.9,30.10,SE,140,8.0,9.0,66,0.00,,,0.00,0.0,meteohub,2013-05-12 05:22:00,
2013-05-12 00:27:00,52.9,41.9,30.10,SE,143,6.0,9.0,66,0.00,,,0.00,0.0,meteohub,2013-05-12 05:27:00,
2013-05-12 00:33:00,52.7,41.7,30.10,SSE,152,4.0,9.0,66,0.00,,,0.00,0.0,meteohub,2013-05-12 05:33:00,
2013-05-12 00:38:00,52.2,41.5,30.11,SSE,161,6.0,9.0,67,0.00,,,0.00,0.0,meteohub,2013-05-12 05:38:00,
2013-05-12 00:43:00,52.0,41.7,30.11,SSE,159,7.0,9.0,68,0.00,,,0.00,0.0,meteohub,2013-05-12 05:43:00,
2013-05-12 00:48:00,52.0,41.4,30.11,SSE,156,6.0,8.0,67,0.00,,,0.00,0.0,meteohub,2013-05-12 05:48:00,
2013-05-12 00:53:00,52.0,41.4,30.10,SSE,155,6.0,8.0,67,0.00,,,0.00,0.0,meteohub,2013-05-12 05:53:00,
2013-05-12 00:58:00,52.5,41.2,30.10,SSE,153,7.0,8.0,65,0.00,,,0.00,0.0,meteohub,2013-05-12 05:58:00,
2013-05-12 01:03:00,53.2,41.0,30.10,SE,146,9.0,10.0,63,0.00,,,0.00,0.0,meteohub,2013-05-12 06:03:00,
2013-05-12 01:08:00,53.6,40.8,30.10,SE,144,10.0,11.0,62,0.00,,,0.00,0.0,meteohub,2013-05-12 06:08:00,
2013-05-12 01:13:00,53.6,40.8,30.11,SSE,149,6.0,12.0,62,0.00,,,0.00,0.0,meteohub,2013-05-12 06:13:00,
2013-05-12 01:18:00,53.2,41.0,30.11,SSE,151,8.0,12.0,63,0.00,,,0.00,0.0,meteohub,2013-05-12 06:18:00,
2013-05-12 01:23:00,52.7,41.2,30.11,SSE,164,5.0,12.0,65,0.00,,,0.00,0.0,meteohub,2013-05-12 06:23:00,
2013-05-12 01:28:00,52.2,41.2,30.11,South,173,4.0,10.0,66,0.00,,,0.00,0.0,meteohub,2013-05-12 06:28:00,
2013-05-12 01:33:00,51.6,41.0,30.11,South,173,3.0,9.0,67,0.00,,,0.00,0.0,meteohub,2013-05-12 06:33:00,
2013-05-12 01:38:00,51.4,41.2,30.11,South,181,6.0,7.0,68,0.00,,,0.00,0.0,meteohub,2013-05-12 06:38:00,
2013-05-12 01:43:00,51.1,41.7,30.11,South,187,6.0,6.0,70,0.00,,,0.00,0.0,meteohub,2013-05-12 06:43:00,
2013-05-12 01:48:00,51.3,41.9,30.11,South,177,5.0,8.0,70,0.00,,,0.00,0.0,meteohub,2013-05-12 06:48:00,
2013-05-12 01:54:00,51.4,41.2,30.11,South,172,4.0,8.0,68,0.00,,,0.00,0.0,meteohub,2013-05-12 06:54:00,
2013-05-12 01:59:00,51.4,41.2,30.10,South,182,6.0,8.0,68,0.00,,,0.00,0.0,meteohub,2013-05-12 06:59:00,
2013-05-12 02:04:00,51.4,41.5,30.10,South,178,5.0,9.0,69,0.00,,,0.00,0.0,meteohub,2013-05-12 07:04:00,
2013-05-12 02:09:00,51.1,41.7,30.10,South,176,5.0,9.0,70,0.00,,,0.00,0.0,meteohub,2013-05-12 07:09:00,
2013-05-12 02:14:00,50.7,41.4,30.10,South,186,7.0,9.0,70,0.00,,,0.00,0.0,meteohub,2013-05-12 07:14:00,
2013-05-12 02:19:00,50.7,41.7,30.09,South,187,8.0,9.0,71,0.00,,,0.00,0.0,meteohub,2013-05-12 07:19:00,
2013-05-12 02:24:00,50.5,41.5,30.09,South,187,9.0,9.0,71,0.00,,,0.00,0.0,meteohub,2013-05-12 07:24:00,
2013-05-12 02:29:00,50.7,42.1,30.09,South,182,6.0,10.0,72,0.00,,,0.00,0.0,meteohub,2013-05-12 07:29:00,
2013-05-12 02:34:00,51.1,42.4,30.09,South,182,5.0,13.0,72,0.00,,,0.00,0.0,meteohub,2013-05-12 07:34:00,
2013-05-12 02:39:00,50.9,42.6,30.09,South,182,4.0,13.0,73,0.00,,,0.00,0.0,meteohub,2013-05-12 07:39:00,
2013-05-12 02:44:00,50.7,42.4,30.09,South,189,9.0,13.0,73,0.00,,,0.00,0.0,meteohub,2013-05-12 07:44:00,
2013-05-12 02:49:00,50.7,42.4,30.09,South,186,6.0,9.0,73,0.00,,,0.00,0.0,meteohub,2013-05-12 07:49:00,
2013-05-12 02:54:00,50.7,42.4,30.08,South,182,4.0,9.0,73,0.00,,,0.00,0.0,meteohub,2013-05-12 07:54:00,
2013-05-12 02:59:00,50.5,42.3,30.08,South,178,5.0,9.0,73,0.00,,,0.00,0.0,meteohub,2013-05-12 07:59:00,
2013-05-12 03:04:00,50.4,42.1,30.08,South,176,5.0,9.0,73,0.00,,,0.00,0.0,meteohub,2013-05-12 08:04:00,
2013-05-12 03:09:00,50.2,42.3,30.08,South,175,5.0,8.0,74,0.00,,,0.00,0.0,meteohub,2013-05-12 08:09:00,
2013-05-12 03:14:00,50.2,42.3,30.08,South,191,7.0,7.0,74,0.00,,,0.00,0.0,meteohub,2013-05-12 08:14:00,
2013-05-12 03:19:00,50.2,42.3,30.08,South,184,8.0,9.0,74,0.00,,,0.00,0.0,meteohub,2013-05-12 08:19:00,
2013-05-12 03:24:00,50.2,42.3,30.08,South,188,5.0,10.0,74,0.00,,,0.00,0.0,meteohub,2013-05-12 08:24:00,
2013-05-12 03:29:00,49.8,41.9,30.08,SSW,192,7.0,10.0,74,0.00,,,0.00,0.0,meteohub,2013-05-12 08:29:00,
2013-05-12 03:34:00,49.6,42.1,30.07,SSW,193,7.0,10.0,75,0.00,,,0.00,0.0,meteohub,2013-05-12 08:34:00,
2013-05-12 03:39:00,49.6,42.1,30.07,SSW,194,7.0,10.0,75,0.00,,,0.00,0.0,meteohub,2013-05-12 08:39:00,
2013-05-12 03:44:00,49.5,41.9,30.07,SSW,192,8.0,10.0,75,0.00,,,0.00,0.0,meteohub,2013-05-12 08:44:00,
2013-05-12 03:49:00,49.5,41.9,30.07,SSW,193,7.0,11.0,75,0.00,,,0.00,0.0,meteohub,2013-05-12 08:49:00,
2013-05-12 03:54:00,49.3,42.1,30.07,SSW,199,8.0,11.0,76,0.00,,,0.00,0.0,meteohub,2013-05-12 08:54:00,
2013-05-12 03:59:00,48.9,41.7,30.06,SSW,198,9.0,11.0,76,0.00,,,0.00,0.0,meteohub,2013-05-12 08:59:00,
2013-05-12 04:04:00,48.9,42.1,30.07,SSW,203,8.0,10.0,77,0.00,,,0.00,0.0,meteohub,2013-05-12 09:04:00,
2013-05-12 04:09:00,48.6,41.7,30.06,SSW,208,7.0,10.0,77,0.00,,,0.00,0.0,meteohub,2013-05-12 09:09:00,
2013-05-12 04:14:00,47.8,41.4,30.06,SSW,207,7.0,10.0,78,0.00,,,0.00,0.0,meteohub,2013-05-12 09:14:00,
2013-05-12 04:19:00,47.1,41.4,30.06,SSW,210,8.0,9.0,80,0.00,,,0.00,0.0,meteohub,2013-05-12 09:19:00,
2013-05-12 04:24:00,47.1,41.5,30.06,SSW,209,8.0,9.0,81,0.00,,,0.00,0.0,meteohub,2013-05-12 09:24:00,
2013-05-12 04:29:00,47.5,41.9,30.06,SSW,202,10.0,10.0,81,0.00,,,0.00,0.0,meteohub,2013-05-12 09:29:00,
2013-05-12 04:34:00,47.8,42.3,30.06,SSW,207,7.0,11.0,81,0.00,,,0.00,0.0,meteohub,2013-05-12 09:34:00,
2013-05-12 04:39:00,47.8,42.3,30.06,SSW,207,10.0,11.0,81,0.00,,,0.00,0.0,meteohub,2013-05-12 09:39:00,
2013-05-12 04:44:00,48.4,42.8,30.05,SSW,205,11.0,12.0,81,0.00,,,0.00,0.0,meteohub,2013-05-12 09:44:00,
2013-05-12 04:49:00,48.7,42.8,30.05,SSW,205,11.0,12.0,80,0.00,,,0.00,0.0,meteohub,2013-05-12 09:49:00,
2013-05-12 04:54:00,48.9,43.0,30.05,SW,214,9.0,13.0,80,0.00,,,0.00,0.0,meteohub,2013-05-12 09:54:00,
2013-05-12 04:59:00,48.7,42.8,30.05,SSW,204,9.0,13.0,80,0.00,,,0.00,0.0,meteohub,2013-05-12 09:59:00,
2013-05-12 05:04:00,48.7,42.8,30.05,SSW,205,7.0,12.0,80,0.00,,,0.00,0.0,meteohub,2013-05-12 10:04:00,
2013-05-12 05:09:00,48.6,43.0,30.05,SSW,205,7.0,11.0,81,0.00,,,0.00,0.0,meteohub,2013-05-12 10:09:00,
2013-05-12 05:14:00,48.0,42.4,30.05,SSW,210,7.0,11.0,81,0.00,,,0.00,0.0,meteohub,2013-05-12 10:14:00,
2013-05-12 05:19:00,47.8,42.6,30.04,SSW,196,8.0,10.0,82,0.00,,,0.00,0.0,meteohub,2013-05-12 10:19:00,
2013-05-12 05:24:00,47.7,42.4,30.04,SSW,198,8.0,9.0,82,0.00,,,0.00,0.0,meteohub,2013-05-12 10:24:00,
2013-05-12 05:29:00,47.3,42.4,30.04,SSW,202,7.0,9.0,83,0.00,,,0.00,0.0,meteohub,2013-05-12 10:29:00,
2013-05-12 05:34:00,46.9,42.1,30.04,SSW,206,7.0,9.0,83,0.00,,,0.00,0.0,meteohub,2013-05-12 10:34:00,
2013-05-12 05:39:00,46.8,41.9,30.04,SSW,209,6.0,9.0,83,0.00,,,0.00,0.0,meteohub,2013-05-12 10:39:00,
2013-05-12 05:44:00,46.6,42.1,30.04,SSW,211,6.0,8.0,84,0.00,,,0.00,0.0,meteohub,2013-05-12 10:44:00,
2013-05-12 05:49:00,46.2,41.7,30.04,SSW,212,7.0,8.0,84,0.00,,,0.00,0.0,meteohub,2013-05-12 10:49:00,
2013-05-12 05:54:00,45.9,41.5,30.04,SSW,211,7.0,8.0,85,0.00,,,0.00,0.0,meteohub,2013-05-12 10:54:00,
2013-05-12 05:59:00,45.9,41.5,30.04,SSW,200,7.0,8.0,85,0.00,,,0.00,0.0,meteohub,2013-05-12 10:59:00,
2013-05-12 06:04:00,45.9,41.5,30.04,SSW,196,7.0,8.0,85,0.00,,,0.00,0.0,meteohub,2013-05-12 11:04:00,
2013-05-12 06:09:00,45.9,41.9,30.04,SSW,199,8.0,9.0,86,0.00,,,0.00,0.0,meteohub,2013-05-12 11:09:00,
2013-05-12 06:14:00,45.9,41.5,30.04,SSW,205,7.0,9.0,85,0.00,,,0.00,0.0,meteohub,2013-05-12 11:14:00,
2013-05-12 06:19:00,46.0,41.7,30.04,SSW,204,7.0,9.0,85,0.00,,,0.00,0.0,meteohub,2013-05-12 11:19:00,
2013-05-12 06:24:00,45.9,41.5,30.04,SSW,203,7.0,9.0,85,0.00,,,0.00,0.0,meteohub,2013-05-12 11:24:00,
2013-05-12 06:29:00,45.9,41.5,30.04,SSW,205,7.0,9.0,85,0.00,,,0.00,0.0,meteohub,2013-05-12 11:29:00,
2013-05-12 06:34:00,45.7,41.4,30.04,SSW,211,7.0,8.0,85,0.00,,,0.00,0.0,meteohub,2013-05-12 11:34:00,
2013-05-12 06:39:00,45.7,41.4,30.04,SSW,211,7.0,8.0,85,0.00,,,0.00,0.0,meteohub,2013-05-12 11:39:00,
2013-05-12 06:44:00,45.3,41.4,30.04,SSW,213,6.0,8.0,86,0.00,,,0.00,0.0,meteohub,2013-05-12 11:44:00,
2013-05-12 06:49:00,45.3,41.7,30.04,SSW,209,7.0,8.0,87,0.00,,,0.00,7.0,meteohub,2013-05-12 11:49:00,
2013-05-12 06:54:00,45.0,41.0,30.04,SSW,202,6.0,7.0,86,0.00,,,0.00,9.0,meteohub,2013-05-12 11:54:00,
2013-05-12 06:59:00,45.0,41.4,30.04,SSW,194,8.0,8.0,87,0.00,,,0.00,12.0,meteohub,2013-05-12 11:59:00,
2013-05-12 07:04:00,45.1,41.5,30.04,SSW,194,7.0,9.0,87,0.00,,,0.00,14.0,meteohub,2013-05-12 12:04:00,
2013-05-12 07:09:00,45.7,42.3,30.03,SSW,198,9.0,9.0,88,0.00,,,0.00,18.0,meteohub,2013-05-12 12:09:00,
2013-05-12 07:14:00,46.2,42.6,30.04,SSW,199,10.0,11.0,87,0.00,,,0.00,19.0,meteohub,2013-05-12 12:14:00,
2013-05-12 07:19:00,46.9,43.0,30.04,SSW,195,8.0,11.0,86,0.00,,,0.00,25.0,meteohub,2013-05-12 12:19:00,
2013-05-12 07:24:00,47.7,43.3,30.04,SSW,199,9.0,11.0,85,0.00,,,0.00,28.0,meteohub,2013-05-12 12:24:00,
2013-05-12 07:29:00,48.4,43.7,30.04,SSW,208,9.0,12.0,84,0.00,,,0.00,35.0,meteohub,2013-05-12 12:29:00,
2013-05-12 07:34:00,48.7,43.9,30.04,SSW,198,9.0,13.0,83,0.00,,,0.00,70.0,meteohub,2013-05-12 12:34:00,
2013-05-12 07:39:00,49.5,44.2,30.04,SSW,194,10.0,13.0,82,0.00,,,0.00,111.0,meteohub,2013-05-12 12:39:00,
2013-05-12 07:44:00,50.4,44.8,30.03,SSW,199,8.0,13.0,81,0.00,,,0.00,130.0,meteohub,2013-05-12 12:44:00,
2013-05-12 07:49:00,51.1,44.8,30.03,SSW,200,9.0,15.0,79,0.00,,,0.00,135.0,meteohub,2013-05-12 12:49:00,
2013-05-12 07:54:00,52.0,45.3,30.03,South,186,12.0,16.0,78,0.00,,,0.00,125.0,meteohub,2013-05-12 12:54:00,
2013-05-12 07:59:00,52.3,45.3,30.03,SSW,213,13.0,17.0,77,0.00,,,0.00,139.0,meteohub,2013-05-12 12:59:00,
2013-05-12 08:04:00,53.2,45.9,30.03,SSW,200,16.0,19.0,76,0.00,,,0.00,178.0,meteohub,2013-05-12 13:04:00,
2013-05-12 08:09:00,53.8,46.0,30.03,SSW,212,16.0,19.0,75,0.00,,,0.00,214.0,meteohub,2013-05-12 13:09:00,
2013-05-12 08:14:00,54.3,46.2,30.03,SSW,207,17.0,19.0,74,0.00,,,0.00,221.0,meteohub,2013-05-12 13:14:00,
2013-05-12 08:19:00,54.9,46.4,30.03,SSW,208,12.0,19.0,73,0.00,,,0.00,248.0,meteohub,2013-05-12 13:19:00,
2013-05-12 08:24:00,55.6,46.4,30.03,SSW,198,16.0,21.0,71,0.00,,,0.00,185.0,meteohub,2013-05-12 13:24:00,
2013-05-12 08:29:00,56.1,46.8,30.02,SSW,197,19.0,26.0,71,0.00,,,0.00,227.0,meteohub,2013-05-12 13:29:00,
2013-05-12 08:34:00,56.7,46.6,30.02,SSW,205,12.0,26.0,69,0.00,,,0.00,211.0,meteohub,2013-05-12 13:34:00,
2013-05-12 08:40:00,56.8,46.8,30.02,SSW,207,16.0,26.0,69,0.00,,,0.00,229.0,meteohub,2013-05-12 13:40:00,
2013-05-12 08:45:00,57.4,46.9,30.02,SSW,207,18.0,28.0,68,0.00,,,0.00,244.0,meteohub,2013-05-12 13:45:00,
2013-05-12 08:50:00,57.9,46.9,30.02,SSW,208,13.0,28.0,67,0.00,,,0.00,279.0,meteohub,2013-05-12 13:50:00,
2013-05-12 08:55:00,58.5,47.5,30.02,SSW,213,17.0,28.0,67,0.00,,,0.00,336.0,meteohub,2013-05-12 13:55:00,
2013-05-12 09:00:00,59.2,47.5,30.02,SSW,195,21.0,26.0,65,0.00,,,0.00,373.0,meteohub,2013-05-12 14:00:00,
2013-05-12 09:05:00,59.5,47.8,30.02,SSW,212,20.0,26.0,65,0.00,,,0.00,410.0,meteohub,2013-05-12 14:05:00,
2013-05-12 09:10:00,60.1,47.5,30.02,SSW,213,20.0,24.0,63,0.00,,,0.00,424.0,meteohub,2013-05-12 14:10:00,
2013-05-12 09:15:00,60.6,47.5,30.02,SW,220,21.0,25.0,62,0.00,,,0.00,441.0,meteohub,2013-05-12 14:15:00,
2013-05-12 09:20:00,61.0,47.8,30.02,SW,215,14.0,25.0,62,0.00,,,0.00,457.0,meteohub,2013-05-12 14:20:00,
2013-05-12 09:25:00,62.1,48.4,30.03,SSW,207,17.0,25.0,61,0.00,,,0.00,476.0,meteohub,2013-05-12 14:25:00,
2013-05-12 09:30:00,62.4,48.4,30.02,SW,216,21.0,26.0,60,0.00,,,0.00,490.0,meteohub,2013-05-12 14:30:00,
2013-05-12 09:35:00,63.0,48.0,30.02,SW,219,19.0,27.0,58,0.00,,,0.00,506.0,meteohub,2013-05-12 14:35:00,
2013-05-12 09:40:00,63.3,47.8,30.02,SW,229,26.0,27.0,57,0.00,,,0.00,387.0,meteohub,2013-05-12 14:40:00,
2013-05-12 09:45:00,63.9,48.4,30.02,SW,221,23.0,27.0,57,0.00,,,0.00,232.0,meteohub,2013-05-12 14:45:00,
2013-05-12 09:50:00,63.7,47.7,30.02,SW,224,23.0,28.0,56,0.00,,,0.00,271.0,meteohub,2013-05-12 14:50:00,
2013-05-12 09:55:00,64.0,47.5,30.02,SW,221,26.0,30.0,55,0.00,,,0.00,381.0,meteohub,2013-05-12 14:55:00,
2013-05-12 10:00:00,64.2,47.7,30.01,SW,215,22.0,30.0,55,0.00,,,0.00,448.0,meteohub,2013-05-12 15:00:00,
2013-05-12 10:05:00,64.9,48.4,30.01,SW,217,26.0,30.0,55,0.00,,,0.00,369.0,meteohub,2013-05-12 15:05:00,
2013-05-12 10:10:00,65.7,48.0,30.00,SW,217,27.0,27.0,53,0.00,,,0.00,320.0,meteohub,2013-05-12 15:10:00,
2013-05-12 10:15:00,66.2,48.0,30.00,SW,231,20.0,30.0,52,0.00,,,0.00,499.0,meteohub,2013-05-12 15:15:00,
2013-05-12 10:21:00,66.6,48.4,29.99,SW,221,21.0,30.0,52,0.00,,,0.00,454.0,meteohub,2013-05-12 15:21:00,
2013-05-12 10:26:00,67.5,48.2,29.99,SSW,213,19.0,29.0,50,0.00,,,0.00,503.0,meteohub,2013-05-12 15:26:00,
2013-05-12 10:31:00,67.6,47.8,29.99,SW,232,24.0,30.0,49,0.00,,,0.00,584.0,meteohub,2013-05-12 15:31:00,
2013-05-12 10:36:00,68.2,47.7,29.99,SW,221,20.0,30.0,48,0.00,,,0.00,592.0,meteohub,2013-05-12 15:36:00,
2013-05-12 10:41:00,68.7,47.7,29.99,SW,232,28.0,31.0,47,0.00,,,0.00,617.0,meteohub,2013-05-12 15:41:00,
2013-05-12 10:46:00,69.1,47.5,29.98,SW,222,22.0,31.0,46,0.00,,,0.00,677.0,meteohub,2013-05-12 15:46:00,
2013-05-12 10:51:00,69.4,47.1,29.97,SW,220,25.0,29.0,45,0.00,,,0.00,668.0,meteohub,2013-05-12 15:51:00,
2013-05-12 10:56:00,70.3,46.2,29.97,SW,232,18.0,29.0,42,0.00,,,0.00,728.0,meteohub,2013-05-12 15:56:00,
2013-05-12 11:01:00,70.5,45.7,29.97,SW,221,25.0,31.0,41,0.00,,,0.00,686.0,meteohub,2013-05-12 16:01:00,
2013-05-12 11:06:00,71.1,46.2,29.96,SW,215,22.0,32.0,41,0.00,,,0.00,698.0,meteohub,2013-05-12 16:06:00,
2013-05-12 11:11:00,71.6,44.6,29.96,SW,232,21.0,32.0,38,0.00,,,0.00,696.0,meteohub,2013-05-12 16:11:00,
2013-05-12 11:16:00,72.1,45.1,29.96,SW,234,24.0,32.0,38,0.00,,,0.00,770.0,meteohub,2013-05-12 16:16:00,
2013-05-12 11:22:00,72.5,44.8,29.96,SW,220,23.0,31.0,37,0.00,,,0.00,744.0,meteohub,2013-05-12 16:22:00,
2013-05-12 11:27:00,72.5,44.8,29.96,SW,228,23.0,28.0,37,0.00,,,0.00,782.0,meteohub,2013-05-12 16:27:00,
2013-05-12 11:32:00,72.9,45.1,29.96,SW,217,25.0,28.0,37,0.00,,,0.00,756.0,meteohub,2013-05-12 16:32:00,
2013-05-12 11:37:00,73.0,45.1,29.95,SW,229,22.0,33.0,37,0.00,,,0.00,786.0,meteohub,2013-05-12 16:37:00,
2013-05-12 11:42:00,73.6,45.7,29.95,SW,215,17.0,33.0,37,0.00,,,0.00,838.0,meteohub,2013-05-12 16:42:00,
2013-05-12 11:47:00,74.7,43.7,29.94,SW,219,25.0,33.0,33,0.00,,,0.00,842.0,meteohub,2013-05-12 16:47:00,
2013-05-12 11:52:00,74.7,44.4,29.94,SW,226,25.0,31.0,34,0.00,,,0.00,867.0,meteohub,2013-05-12 16:52:00,
2013-05-12 11:57:00,74.7,43.7,29.94,SW,230,21.0,31.0,33,0.00,,,0.00,874.0,meteohub,2013-05-12 16:57:00,
2013-05-12 12:02:00,75.0,43.9,29.94,SW,233,20.0,30.0,33,0.00,,,0.00,793.0,meteohub,2013-05-12 17:02:00,
2013-05-12 12:07:00,75.7,44.6,29.94,SW,225,22.0,30.0,33,0.00,,,0.00,837.0,meteohub,2013-05-12 17:07:00,
2013-05-12 12:12:00,76.3,44.2,29.94,SW,236,26.0,30.0,32,0.00,,,0.00,802.0,meteohub,2013-05-12 17:12:00,
2013-05-12 12:17:00,76.1,42.4,29.94,WSW,241,19.0,30.0,30,0.00,,,0.00,868.0,meteohub,2013-05-12 17:17:00,
2013-05-12 12:22:00,76.8,42.1,29.94,SW,231,22.0,30.0,29,0.00,,,0.00,846.0,meteohub,2013-05-12 17:22:00,
2013-05-12 12:27:00,76.8,43.0,29.93,SW,229,19.0,30.0,30,0.00,,,0.00,809.0,meteohub,2013-05-12 17:27:00,
2013-05-12 12:32:00,76.8,41.2,29.92,WSW,241,21.0,29.0,28,0.00,,,0.00,854.0,meteohub,2013-05-12 17:32:00,
2013-05-12 12:37:00,77.4,41.7,29.92,WSW,241,22.0,26.0,28,0.00,,,0.00,861.0,meteohub,2013-05-12 17:37:00,
2013-05-12 12:42:00,78.4,40.6,29.91,SW,232,16.0,31.0,26,0.00,,,0.00,898.0,meteohub,2013-05-12 17:42:00,
2013-05-12 12:47:00,78.6,42.8,29.91,WSW,237,21.0,31.0,28,0.00,,,0.00,875.0,meteohub,2013-05-12 17:47:00,
2013-05-12 12:52:00,78.8,41.0,29.91,WSW,240,13.0,31.0,26,0.00,,,0.00,942.0,meteohub,2013-05-12 17:52:00,
2013-05-12 12:57:00,79.3,41.5,29.91,SW,236,16.0,29.0,26,0.00,,,0.00,963.0,meteohub,2013-05-12 17:57:00,
2013-05-12 13:02:00,79.0,40.1,29.91,SW,228,13.0,24.0,25,0.00,,,0.00,960.0,meteohub,2013-05-12 18:02:00,
2013-05-12 13:07:00,79.2,41.4,29.91,SW,217,21.0,24.0,26,0.00,,,0.00,972.0,meteohub,2013-05-12 18:07:00,
2013-05-12 13:12:00,78.6,39.9,29.91,SW,220,16.0,24.0,25,0.00,,,0.00,921.0,meteohub,2013-05-12 18:12:00,
2013-05-12 13:17:00,79.5,41.5,29.90,WSW,246,13.0,22.0,26,0.00,,,0.00,979.0,meteohub,2013-05-12 18:17:00,
2013-05-12 13:22:00,79.9,41.0,29.90,WSW,240,11.0,22.0,25,0.00,,,0.00,979.0,meteohub,2013-05-12 18:22:00,
2013-05-12 13:27:00,79.7,40.8,29.90,SW,227,20.0,22.0,25,0.00,,,0.00,986.0,meteohub,2013-05-12 18:27:00,
2013-05-12 13:32:00,79.3,38.3,29.89,SW,219,15.0,23.0,23,0.00,,,0.00,988.0,meteohub,2013-05-12 18:32:00,
2013-05-12 13:37:00,79.2,39.2,29.89,WSW,240,14.0,23.0,24,0.00,,,0.00,979.0,meteohub,2013-05-12 18:37:00,
2013-05-12 13:42:00,79.7,38.7,29.89,SW,236,15.0,23.0,23,0.00,,,0.00,983.0,meteohub,2013-05-12 18:42:00,
2013-05-12 13:47:00,80.1,40.1,29.89,SW,223,14.0,19.0,24,0.00,,,0.00,981.0,meteohub,2013-05-12 18:47:00,
2013-05-12 13:52:00,80.4,40.3,29.88,SSW,211,8.0,19.0,24,0.00,,,0.00,993.0,meteohub,2013-05-12 18:52:00,
2013-05-12 13:57:00,81.0,38.5,29.88,SW,223,11.0,22.0,22,0.00,,,0.00,1000.0,meteohub,2013-05-12 18:57:00,
2013-05-12 14:02:00,81.0,39.7,29.88,SW,231,20.0,22.0,23,0.00,,,0.00,1000.0,meteohub,2013-05-12 19:02:00,
2013-05-12 14:07:00,81.0,37.4,29.88,SW,225,13.0,22.0,21,0.00,,,0.00,1004.0,meteohub,2013-05-12 19:07:00,
2013-05-12 14:12:00,81.5,36.5,29.87,SSW,209,22.0,22.0,20,0.00,,,0.00,1035.0,meteohub,2013-05-12 19:12:00,
2013-05-12 14:17:00,81.5,36.5,29.88,SSW,200,11.0,22.0,20,0.00,,,0.00,1044.0,meteohub,2013-05-12 19:17:00,
2013-05-12 14:22:00,80.8,36.0,29.87,WSW,249,17.0,22.0,20,0.00,,,0.00,230.0,meteohub,2013-05-12 19:22:00,
2013-05-12 14:27:00,80.1,37.8,29.86,SW,222,15.0,22.0,22,0.00,,,0.00,295.0,meteohub,2013-05-12 19:27:00,
2013-05-12 14:32:00,80.2,35.6,29.86,South,189,13.0,21.0,20,0.00,,,0.00,1076.0,meteohub,2013-05-12 19:32:00,
2013-05-12 14:37:00,80.8,36.0,29.86,South,178,12.0,21.0,20,0.00,,,0.00,1014.0,meteohub,2013-05-12 19:37:00,
2013-05-12 14:42:00,82.0,38.3,29.86,SW,235,14.0,21.0,21,0.00,,,0.00,1030.0,meteohub,2013-05-12 19:42:00,
2013-05-12 14:47:00,82.9,36.5,29.86,SW,221,15.0,23.0,19,0.00,,,0.00,1020.0,meteohub,2013-05-12 19:47:00,
2013-05-12 14:52:00,82.4,36.0,29.85,SW,229,14.0,23.0,19,0.00,,,0.00,1042.0,meteohub,2013-05-12 19:52:00,
2013-05-12 14:57:00,82.4,38.5,29.85,SW,225,22.0,22.0,21,0.00,,,0.00,1088.0,meteohub,2013-05-12 19:57:00,
2013-05-12 15:02:00,83.1,35.2,29.85,West,261,11.0,24.0,18,0.00,,,0.00,854.0,meteohub,2013-05-12 20:02:00,
2013-05-12 15:07:00,83.1,35.2,29.84,WSW,245,13.0,24.0,18,0.00,,,0.00,311.0,meteohub,2013-05-12 20:07:00,
2013-05-12 15:12:00,82.6,34.7,29.84,WSW,246,2.0,24.0,18,0.00,,,0.00,459.0,meteohub,2013-05-12 20:12:00,
2013-05-12 15:17:00,82.2,34.5,29.83,SW,223,19.0,20.0,18,0.00,,,0.00,288.0,meteohub,2013-05-12 20:17:00,
2013-05-12 15:22:00,81.5,35.2,29.84,SW,235,11.0,20.0,19,0.00,,,0.00,172.0,meteohub,2013-05-12 20:22:00,
2013-05-12 15:27:00,81.0,34.9,29.84,SW,228,4.0,20.0,19,0.00,,,0.00,151.0,meteohub,2013-05-12 20:27:00,
2013-05-12 15:32:00,80.6,35.8,29.83,SW,223,14.0,20.0,20,0.00,,,0.00,148.0,meteohub,2013-05-12 20:32:00,
2013-05-12 15:37:00,80.1,42.1,29.84,WNW,289,20.0,23.0,26,0.00,,,0.00,195.0,meteohub,2013-05-12 20:37:00,
2013-05-12 15:42:00,78.1,39.4,29.84,SW,227,0.0,24.0,25,0.00,,,0.00,299.0,meteohub,2013-05-12 20:42:00,
2013-05-12 15:47:00,78.3,37.4,29.83,SSE,155,1.0,24.0,23,0.00,,,0.00,315.0,meteohub,2013-05-12 20:47:00,
2013-05-12 15:52:00,78.6,36.7,29.83,East,81,0.0,24.0,22,0.00,,,0.00,174.0,meteohub,2013-05-12 20:52:00,
2013-05-12 15:57:00,79.0,35.8,29.83,East,80,0.0,5.0,21,0.00,,,0.00,163.0,meteohub,2013-05-12 20:57:00,
2013-05-12 16:02:00,79.3,38.3,29.84,SW,228,6.0,8.0,23,0.00,,,0.00,267.0,meteohub,2013-05-12 21:02:00,
2013-05-12 16:07:00,80.1,37.8,29.83,WSW,244,10.0,14.0,22,0.00,,,0.00,276.0,meteohub,2013-05-12 21:07:00,
2013-05-12 16:12:00,80.1,36.7,29.83,SSW,192,2.0,23.0,21,0.00,,,0.00,264.0,meteohub,2013-05-12 21:12:00,
2013-05-12 16:17:00,79.9,35.2,29.83,SW,222,9.0,23.0,20,0.00,,,0.00,241.0,meteohub,2013-05-12 21:17:00,
2013-05-12 16:22:00,80.2,36.7,29.83,South,172,3.0,23.0,21,0.00,,,0.00,986.0,meteohub,2013-05-12 21:22:00,
2013-05-12 16:27:00,80.6,35.8,29.82,SW,220,6.0,15.0,20,0.00,,,0.00,167.0,meteohub,2013-05-12 21:27:00,
2013-05-12 16:32:00,80.4,34.3,29.82,SW,218,2.0,15.0,19,0.00,,,0.00,174.0,meteohub,2013-05-12 21:32:00,
2013-05-12 16:37:00,80.2,35.6,29.82,SSW,207,0.0,13.0,20,0.00,,,0.00,199.0,meteohub,2013-05-12 21:37:00,
2013-05-12 16:42:00,80.4,35.6,29.82,SSW,210,4.0,8.0,20,0.00,,,0.00,278.0,meteohub,2013-05-12 21:42:00,
2013-05-12 16:47:00,81.0,36.1,29.82,SSW,202,7.0,11.0,20,0.00,,,0.00,246.0,meteohub,2013-05-12 21:47:00,
2013-05-12 16:52:00,80.4,34.3,29.82,SSW,211,12.0,12.0,19,0.00,,,0.00,209.0,meteohub,2013-05-12 21:52:00,
2013-05-12 16:57:00,80.2,34.2,29.82,SSW,199,13.0,26.0,19,0.00,,,0.00,193.0,meteohub,2013-05-12 21:57:00,
2013-05-12 17:02:00,81.0,36.1,29.81,SSW,211,12.0,26.0,20,0.00,,,0.00,759.0,meteohub,2013-05-12 22:02:00,
2013-05-12 17:07:00,82.4,36.0,29.81,SW,224,12.0,18.0,19,0.00,,,0.00,603.0,meteohub,2013-05-12 22:07:00,
2013-05-12 17:12:00,81.9,35.6,29.81,WSW,244,15.0,19.0,19,0.00,,,0.00,178.0,meteohub,2013-05-12 22:12:00,
2013-05-12 17:17:00,81.0,34.9,29.81,SW,227,10.0,19.0,19,0.00,,,0.00,162.0,meteohub,2013-05-12 22:17:00,
2013-05-12 17:22:00,81.0,34.9,29.81,SW,227,5.0,18.0,19,0.00,,,0.00,700.0,meteohub,2013-05-12 22:22:00,
2013-05-12 17:27:00,81.7,35.4,29.81,SSW,211,6.0,16.0,19,0.00,,,0.00,696.0,meteohub,2013-05-12 22:27:00,
2013-05-12 17:32:00,82.2,37.2,29.80,SW,218,7.0,15.0,20,0.00,,,0.00,684.0,meteohub,2013-05-12 22:32:00,
2013-05-12 17:37:00,82.8,34.9,29.80,SSW,208,7.0,10.0,18,0.00,,,0.00,652.0,meteohub,2013-05-12 22:37:00,
2013-05-12 17:42:00,82.8,34.9,29.80,SSW,205,7.0,9.0,18,0.00,,,0.00,290.0,meteohub,2013-05-12 22:42:00,
2013-05-12 17:47:00,82.0,35.8,29.80,WSW,241,10.0,13.0,19,0.00,,,0.00,218.0,meteohub,2013-05-12 22:47:00,
2013-05-12 17:52:00,81.7,35.4,29.80,SSW,202,9.0,13.0,19,0.00,,,0.00,181.0,meteohub,2013-05-12 22:52:00,
2013-05-12 17:57:00,81.1,35.1,29.79,SSW,207,9.0,15.0,19,0.00,,,0.00,139.0,meteohub,2013-05-12 22:57:00,
2013-05-12 18:02:00,81.0,34.9,29.79,SW,218,11.0,15.0,19,0.00,,,0.00,162.0,meteohub,2013-05-12 23:02:00,
2013-05-12 18:07:00,81.3,36.5,29.79,SW,235,11.0,15.0,20,0.00,,,0.00,464.0,meteohub,2013-05-12 23:07:00,
2013-05-12 18:12:00,82.2,37.2,29.78,WSW,246,18.0,18.0,20,0.00,,,0.00,531.0,meteohub,2013-05-12 23:12:00,
2013-05-12 18:17:00,82.8,36.3,29.78,SW,229,13.0,22.0,19,0.00,,,0.00,487.0,meteohub,2013-05-12 23:17:00,
2013-05-12 18:22:00,82.9,33.6,29.79,WSW,257,4.0,22.0,17,0.00,,,0.00,406.0,meteohub,2013-05-12 23:22:00,
2013-05-12 18:27:00,83.1,33.8,29.79,WSW,246,3.0,22.0,17,0.00,,,0.00,483.0,meteohub,2013-05-12 23:27:00,
2013-05-12 18:32:00,83.5,34.2,29.79,West,265,7.0,15.0,17,0.00,,,0.00,482.0,meteohub,2013-05-12 23:32:00,
2013-05-12 18:37:00,83.5,32.5,29.79,NNW,333,3.0,15.0,16,0.00,,,0.00,427.0,meteohub,2013-05-12 23:37:00,
2013-05-12 18:42:00,83.1,33.8,29.78,NE,39,0.0,10.0,17,0.00,,,0.00,100.0,meteohub,2013-05-12 23:42:00,
2013-05-12 18:47:00,82.9,33.6,29.78,WSW,254,3.0,10.0,17,0.00,,,0.00,90.0,meteohub,2013-05-12 23:47:00,
2013-05-12 18:52:00,82.4,33.3,29.78,West,276,4.0,10.0,17,0.00,,,0.00,67.0,meteohub,2013-05-12 23:52:00,
2013-05-12 18:57:00,81.9,35.6,29.78,WSW,242,1.0,6.0,19,0.00,,,0.00,70.0,meteohub,2013-05-12 23:57:00,
2013-05-12 19:02:00,81.9,35.6,29.78,SW,216,6.0,6.0,19,0.00,,,0.00,290.0,meteohub,2013-05-13 00:02:00,
2013-05-12 19:07:00,82.0,34.3,29.78,SSW,198,6.0,8.0,18,0.00,,,0.00,227.0,meteohub,2013-05-13 00:07:00,
2013-05-12 19:12:00,81.7,34.0,29.77,SW,221,2.0,9.0,18,0.00,,,0.00,58.0,meteohub,2013-05-13 00:12:00,
2013-05-12 19:17:00,81.3,33.8,29.77,SW,221,0.0,9.0,18,0.00,,,0.00,53.0,meteohub,2013-05-13 00:17:00,
2013-05-12 19:22:00,81.0,34.9,29.77,SW,221,1.0,9.0,19,0.00,,,0.00,46.0,meteohub,2013-05-13 00:22:00,
2013-05-12 19:27:00,80.8,33.3,29.78,SW,221,0.0,4.0,18,0.00,,,0.00,42.0,meteohub,2013-05-13 00:27:00,
2013-05-12 19:32:00,80.6,33.3,29.77,SW,221,0.0,2.0,18,0.00,,,0.00,46.0,meteohub,2013-05-13 00:32:00,
2013-05-12 19:37:00,80.4,34.3,29.78,SW,221,0.0,2.0,19,0.00,,,0.00,44.0,meteohub,2013-05-13 00:37:00,
2013-05-12 19:42:00,80.2,34.2,29.78,SSW,205,1.0,1.0,19,0.00,,,0.00,44.0,meteohub,2013-05-13 00:42:00,
2013-05-12 19:47:00,80.2,32.9,29.77,SSW,205,0.0,4.0,18,0.00,,,0.00,53.0,meteohub,2013-05-13 00:47:00,
2013-05-12 19:52:00,80.2,34.2,29.77,SSW,205,2.0,4.0,19,0.00,,,0.00,44.0,meteohub,2013-05-13 00:52:00,
2013-05-12 19:57:00,79.9,35.2,29.77,SSW,205,3.0,4.0,20,0.00,,,0.00,93.0,meteohub,2013-05-13 00:57:00,
2013-05-12 20:02:00,79.5,36.1,29.77,SSW,205,3.0,4.0,21,0.00,,,0.00,83.0,meteohub,2013-05-13 01:02:00,
2013-05-12 20:07:00,79.3,36.0,29.78,SSW,205,4.0,6.0,21,0.00,,,0.00,67.0,meteohub,2013-05-13 01:07:00,
2013-05-12 20:12:00,78.6,37.8,29.77,SSW,198,7.0,7.0,23,0.00,,,0.00,49.0,meteohub,2013-05-13 01:12:00,
2013-05-12 20:17:00,78.3,37.4,29.77,SSW,196,4.0,7.0,23,0.00,,,0.00,28.0,meteohub,2013-05-13 01:17:00,
2013-05-12 20:22:00,78.4,37.6,29.78,SSW,207,3.0,7.0,23,0.00,,,0.00,26.0,meteohub,2013-05-13 01:22:00,
2013-05-12 20:27:00,77.7,41.0,29.78,SSW,211,4.0,7.0,27,0.00,,,0.00,18.0,meteohub,2013-05-13 01:27:00,
2013-05-12 20:32:00,76.3,40.8,29.78,SW,233,4.0,7.0,28,0.00,,,0.00,14.0,meteohub,2013-05-13 01:32:00,
2013-05-12 20:37:00,75.4,41.7,29.78,SW,225,6.0,6.0,30,0.00,,,0.00,9.0,meteohub,2013-05-13 01:37:00,
2013-05-12 20:42:00,73.9,39.7,29.78,SW,227,6.0,7.0,29,0.00,,,0.00,5.0,meteohub,2013-05-13 01:42:00,
2013-05-12 20:47:00,73.2,40.8,29.79,SW,229,5.0,7.0,31,0.00,,,0.00,0.0,meteohub,2013-05-13 01:47:00,
2013-05-12 20:52:00,72.9,38.7,29.79,WSW,238,2.0,7.0,29,0.00,,,0.00,0.0,meteohub,2013-05-13 01:52:00,
2013-05-12 20:58:00,72.9,39.6,29.79,WSW,248,6.0,7.0,30,0.00,,,0.00,0.0,meteohub,2013-05-13 01:58:00,
2013-05-12 21:03:00,72.7,39.4,29.79,West,259,5.0,7.0,30,0.00,,,0.00,0.0,meteohub,2013-05-13 02:03:00,
2013-05-12 21:08:00,71.4,39.2,29.80,West,271,6.0,8.0,31,0.00,,,0.00,0.0,meteohub,2013-05-13 02:08:00,
2013-05-12 21:13:00,70.2,38.1,29.80,West,267,6.0,8.0,31,0.00,,,0.00,0.0,meteohub,2013-05-13 02:13:00,
2013-05-12 21:18:00,69.3,38.1,29.80,West,268,8.0,8.0,32,0.00,,,0.00,0.0,meteohub,2013-05-13 02:18:00,
2013-05-12 21:23:00,68.4,38.8,29.80,WSW,248,8.0,9.0,34,0.00,,,0.00,0.0,meteohub,2013-05-13 02:23:00,
2013-05-12 21:28:00,67.5,39.6,29.80,WSW,252,10.0,10.0,36,0.00,,,0.00,0.0,meteohub,2013-05-13 02:28:00,
2013-05-12 21:33:00,67.1,40.6,29.81,WSW,237,11.0,11.0,38,0.00,,,0.00,0.0,meteohub,2013-05-13 02:33:00,
2013-05-12 21:38:00,66.2,40.5,29.80,West,259,9.0,14.0,39,0.00,,,0.00,0.0,meteohub,2013-05-13 02:38:00,
2013-05-12 21:43:00,64.9,40.1,29.81,WSW,257,8.0,14.0,40,0.00,,,0.00,0.0,meteohub,2013-05-13 02:43:00,
2013-05-12 21:48:00,66.2,39.9,29.81,West,273,7.0,14.0,38,0.00,,,0.00,0.0,meteohub,2013-05-13 02:48:00,
2013-05-12 21:53:00,67.6,39.7,29.81,West,261,10.0,15.0,36,0.00,,,0.00,0.0,meteohub,2013-05-13 02:53:00,
2013-05-12 21:58:00,67.3,39.4,29.81,West,269,9.0,15.0,36,0.00,,,0.00,0.0,meteohub,2013-05-13 02:58:00,
2013-05-12 22:03:00,65.8,38.8,29.82,WNW,287,9.0,15.0,37,0.00,,,0.00,0.0,meteohub,2013-05-13 03:03:00,
2013-05-12 22:08:00,64.8,38.5,29.82,WNW,298,8.0,13.0,38,0.00,,,0.00,0.0,meteohub,2013-05-13 03:08:00,
2013-05-12 22:13:00,64.8,39.2,29.83,WNW,300,5.0,12.0,39,0.00,,,0.00,0.0,meteohub,2013-05-13 03:13:00,
2013-05-12 22:18:00,64.8,39.2,29.83,NW,321,7.0,10.0,39,0.00,,,0.00,0.0,meteohub,2013-05-13 03:18:00,
2013-05-12 22:24:00,66.6,40.1,29.83,NW,311,9.0,10.0,38,0.00,,,0.00,0.0,meteohub,2013-05-13 03:24:00,
2013-05-12 22:29:00,66.4,39.9,29.83,WNW,294,9.0,11.0,38,0.00,,,0.00,0.0,meteohub,2013-05-13 03:29:00,
2013-05-12 22:34:00,67.1,39.2,29.83,NW,308,9.0,11.0,36,0.00,,,0.00,0.0,meteohub,2013-05-13 03:34:00,
2013-05-12 22:39:00,67.3,39.4,29.83,NW,319,6.0,11.0,36,0.00,,,0.00,0.0,meteohub,2013-05-13 03:39:00,
2013-05-12 22:44:00,66.0,39.0,29.84,NW,319,8.0,11.0,37,0.00,,,0.00,0.0,meteohub,2013-05-13 03:44:00,
2013-05-12 22:49:00,64.8,38.5,29.84,NW,309,10.0,11.0,38,0.00,,,0.00,0.0,meteohub,2013-05-13 03:49:00,
2013-05-12 22:54:00,66.0,39.0,29.85,NW,316,7.0,11.0,37,0.00,,,0.00,0.0,meteohub,2013-05-13 03:54:00,
2013-05-12 22:59:00,66.7,38.3,29.85,NW,315,7.0,11.0,35,0.00,,,0.00,0.0,meteohub,2013-05-13 03:59:00,
2013-05-12 23:01:00,66.6,38.8,29.85,NW,320,9.0,11.0,36,0.00,,,0.00,0.0,meteohub,2013-05-13 04:01:00,
2013-05-12 23:02:00,66.6,38.8,29.85,NW,320,7.0,11.0,36,0.00,,,0.00,0.0,meteohub,2013-05-13 04:02:00,
2013-05-12 23:07:00,66.2,38.5,29.85,NW,308,6.0,10.0,36,0.00,,,0.00,0.0,meteohub,2013-05-13 04:07:00,
2013-05-12 23:12:00,66.6,37.4,29.85,NW,321,6.0,10.0,34,0.00,,,0.00,0.0,meteohub,2013-05-13 04:12:00,
2013-05-12 23:18:00,66.0,36.9,29.85,WNW,292,3.0,10.0,34,0.00,,,0.00,0.0,meteohub,2013-05-13 04:18:00,
2013-05-12 23:23:00,66.7,37.4,29.85,WNW,290,6.0,8.0,34,0.00,,,0.00,0.0,meteohub,2013-05-13 04:23:00,
2013-05-12 23:28:00,65.7,37.9,29.85,West,272,4.0,8.0,36,0.00,,,0.00,0.0,meteohub,2013-05-13 04:28:00,
2013-05-12 23:33:00,65.1,37.6,29.85,West,259,7.0,8.0,36,0.00,,,0.00,0.0,meteohub,2013-05-13 04:33:00,
2013-05-12 23:38:00,65.1,37.6,29.85,WSW,248,1.0,8.0,36,0.00,,,0.00,0.0,meteohub,2013-05-13 04:38:00,
2013-05-12 23:43:00,66.9,38.3,29.85,SW,227,4.0,8.0,35,0.00,,,0.00,0.0,meteohub,2013-05-13 04:43:00,
2013-05-12 23:48:00,66.6,39.6,29.85,WSW,239,5.0,8.0,37,0.00,,,0.00,0.0,meteohub,2013-05-13 04:48:00,
2013-05-12 23:53:00,65.5,39.9,29.84,SW,221,7.0,8.0,39,0.00,,,0.00,0.0,meteohub,2013-05-13 04:53:00,
2013-05-12 23:58:00,65.1,39.6,29.84,SW,217,9.0,10.0,39,0.00,,,0.00,0.0,meteohub,2013-05-13 04:58:00,